Location: Follega
(52.8850°N, 5.7362°E)
Time: 04:14:39
(UTC+00:00)

Cosmos 2297 Rocket - Pass Details

Date: 02 October 2020
Orbit: 838 x 845 km, 71.0° (Epoch: 26 October)

Event Time Altitude Azimuth Distance (km) Brightness Sun altitude
Rises 19:04:04 0° 316° (NW) 3,413 6.5 -17.7°
Reaches altitude 10° 19:08:01 10° 343° (NNW) 2,478 5.1 -18.3°
Maximum altitude 19:10:41 13° 11° (N) 2,250 4.5 -18.7°
Drops below altitude 10° 19:13:21 10° 39° (NE) 2,478 4.4 -19.1°
Enters shadow 19:14:18 - 48° (NE) 2,656 4.5 -19.2°
